,,Stat5,,Stat1,,Stat2,,Stat3,,Stat4,,Wind1,,Wind1,
time,status,PA1M_AVG,status,PR1M_SUM,status,RH1M_AVG,status,SR1M_AVG,status,TA1M_AVG,status,W1dAve1m,status,W1sAve1m,
2001-01-27, 00:00:00,VALID,916.619,VALID,0,VALID,99.4433,VALID,0,VALID,19.1871,VALID,102,VALID,0.315234,
2001-01-27, 00:01:00,VALID,916.647,VALID,0,VALID,99.4382,VALID,-0.0509425,VALID,19.1936,VALID,123,VALID,0.126953,
2001-01-27, 00:02:00,VALID,916.662,VALID,0,VALID,99.442,VALID,-0.0169808,VALID,19.2062,VALID,93,VALID,0.367188,
2001-01-27, 00:03:00,VALID,916.664,VALID,0,VALID,99.4547,VALID,-0.0169808,VALID,19.2224,VALID,56,VALID,0.500206,
2001-01-27, 00:04:00,VALID,916.677,VALID,0,VALID,99.442,VALID,-0.0339617,VALID,19.1816,VALID,337,VALID,0.476345,
2001-01-27, 00:05:00,VALID,916.688,VALID,0.2,VALID,99.4318,VALID,0,VALID,19.1322,VALID,3,VALID,1.1707,
2001-01-27, 00:06:00,VALID,916.679,VALID,0,VALID,99.4331,VALID,-0.0339617,VALID,19.1225,VALID,96,VALID,1.0416,
2001-01-27, 00:07:00,VALID,916.699,VALID,0,VALID,99.4408,VALID,-0.0339617,VALID,19.126,VALID,160,VALID,0.678454,
2001-01-27, 00:08:00,VALID,916.707,VALID,0,VALID,99.4357,VALID,-0.0169808,VALID,19.126,VALID,92,VALID,1.12919,
2001-01-27, 00:09:00,VALID,916.707,VALID,0,VALID,99.4357,VALID,-0.0509425,VALID,19.0974,VALID,91,VALID,1.42568,
2001-01-27, 00:10:00,VALID,916.711,VALID,0,VALID,99.4446,VALID,-0.0169808,VALID,19.0934,VALID,59,VALID,0.662373,
2001-01-27, 00:11:00,VALID,916.694,VALID,0,VALID,99.4357,VALID,-0.0169808,VALID,19.0875,VALID,255,VALID,0.483758,
2001-01-27, 00:12:00,VALID,916.662,VALID,0,VALID,99.4357,VALID,-0.0169808,VALID,19.0649,VALID,314,VALID,0.335515,
2001-01-27, 00:13:00,VALID,916.617,VALID,0,VALID,99.4408,VALID,-0.0339617,VALID,19.0418,VALID,206,VALID,0.443244,
2001-01-27, 00:14:00,VALID,916.547,VALID,0,VALID,99.4446,VALID,-0.0169808,VALID,19.0487,VALID,152,VALID,0.532393,
2001-01-27, 00:15:00,VALID,916.502,VALID,0,VALID,99.4357,VALID,-0.0339617,VALID,19.0318,VALID,211,VALID,0.309495,
2001-01-27, 00:16:00,VALID,916.456,VALID,0,VALID,99.4471,VALID,-0.0339617,VALID,19.0224,VALID,108,VALID,1.06891,
2001-01-27, 00:17:00,VALID,916.44,VALID,0,VALID,99.4585,VALID,-0.0169808,VALID,19.0582,VALID,96,VALID,0.678865,
2001-01-27, 00:18:00,VALID,916.454,VALID,0.2,VALID,99.4624,VALID,-0.0339617,VALID,19.0644,VALID,95,VALID,0.26011,
2001-01-27, 00:19:00,VALID,916.427,VALID,0,VALID,99.4471,VALID,-0.0339617,VALID,19.0515,VALID,232,VALID,0.761285,
2001-01-27, 00:20:00,VALID,916.376,VALID,0,VALID,99.456,VALID,-0.0679233,VALID,19.0522,VALID,107,VALID,1.60417,
2001-01-27, 00:21:00,VALID,916.357,VALID,0,VALID,99.4675,VALID,-0.0509425,VALID,19.0748,VALID,106,VALID,1.70545,
2001-01-27, 00:22:00,VALID,916.322,VALID,0,VALID,99.4827,VALID,-0.0679233,VALID,19.1106,VALID,72,VALID,0.986213,
2001-01-27, 00:23:00,VALID,916.317,VALID,0,VALID,99.4802,VALID,-0.0679233,VALID,19.1029,VALID,119,VALID,0.461571,
2001-01-27, 00:24:00,VALID,916.325,VALID,0,VALID,99.4662,VALID,0,VALID,19.1036,VALID,117,VALID,0.729852,
2001-01-27, 00:25:00,VALID,916.337,VALID,0,VALID,99.4713,VALID,-0.0509425,VALID,19.0674,VALID,109,VALID,1.10567,
2001-01-27, 00:26:00,VALID,916.354,VALID,0,VALID,99.4776,VALID,-0.0169808,VALID,19.0738,VALID,106,VALID,0.84308,
2001-01-27, 00:27:00,VALID,916.38,VALID,0,VALID,99.4929,VALID,-0.0339617,VALID,19.0967,VALID,92,VALID,0.909628,
2001-01-27, 00:28:00,VALID,916.418,VALID,0,VALID,99.4662,VALID,0,VALID,19.0909,VALID,105,VALID,1.08157,
2001-01-27, 00:29:00,VALID,916.432,VALID,0,VALID,99.456,VALID,0,VALID,19.075,VALID,104,VALID,1.33446,
2001-01-27, 00:30:00,VALID,916.449,VALID,0,VALID,99.4585,VALID,-0.0339617,VALID,19.0388,VALID,95,VALID,1.49072,
2001-01-27, 00:31:00,VALID,916.483,VALID,0,VALID,99.4764,VALID,-0.0169808,VALID,19.0482,VALID,99,VALID,1.46374,
2001-01-27, 00:32:00,VALID,916.512,VALID,0,VALID,99.4725,VALID,-0.0339617,VALID,19.0388,VALID,102,VALID,1.35112,
2001-01-27, 00:33:00,VALID,916.521,VALID,0,VALID,99.47,VALID,-0.0169808,VALID,19.0363,VALID,89,VALID,2.02006,
2001-01-27, 00:34:00,VALID,916.531,VALID,0,VALID,99.4789,VALID,0,VALID,19.0164,VALID,102,VALID,1.85501,
2001-01-27, 00:35:00,VALID,916.537,VALID,0,VALID,99.4865,VALID,-0.0169808,VALID,19.0286,VALID,59,VALID,0.647593,
2001-01-27, 00:36:00,VALID,916.52,VALID,0,VALID,99.4776,VALID,-0.0509425,VALID,19.0485,VALID,92,VALID,1.18544,
2001-01-27, 00:37:00,VALID,916.526,VALID,0,VALID,99.4662,VALID,-0.0339617,VALID,19.0266,VALID,79,VALID,1.83388,
2001-01-27, 00:38:00,VALID,916.535,VALID,0,VALID,99.4649,VALID,-0.0339617,VALID,19.0132,VALID,72,VALID,1.07701,
2001-01-27, 00:39:00,VALID,916.516,VALID,0,VALID,99.4713,VALID,-0.0509425,VALID,18.9804,VALID,307,VALID,0.965583,
2001-01-27, 00:40:00,VALID,916.504,VALID,0,VALID,99.4611,VALID,-0.0169808,VALID,18.961,VALID,98,VALID,2.30193,
2001-01-27, 00:41:00,VALID,916.476,VALID,0,VALID,99.4916,VALID,-0.0169808,VALID,18.9846,VALID,72,VALID,1.41448,
2001-01-27, 00:42:00,VALID,916.441,VALID,0,VALID,99.4853,VALID,-0.0679233,VALID,19.0042,VALID,111,VALID,0.844482,
2001-01-27, 00:43:00,VALID,916.409,VALID,0,VALID,99.4942,VALID,0,VALID,19.0229,VALID,102,VALID,1.0004,
2001-01-27, 00:44:00,VALID,916.374,VALID,0,VALID,99.4903,VALID,-0.0339617,VALID,19.036,VALID,107,VALID,1.11071,
2001-01-27, 00:45:00,VALID,916.351,VALID,0,VALID,99.4865,VALID,-0.0339617,VALID,18.9903,VALID,102,VALID,0.760557,
2001-01-27, 00:46:00,VALID,916.35,VALID,0,VALID,99.498,VALID,-0.0339617,VALID,19,VALID,96,VALID,1.32077,
2001-01-27, 00:47:00,VALID,916.361,VALID,0,VALID,99.4942,VALID,-0.0339617,VALID,19.0201,VALID,47,VALID,0.925042,
2001-01-27, 00:48:00,VALID,916.406,VALID,0,VALID,99.4954,VALID,-0.0509425,VALID,18.994,VALID,107,VALID,1.81291,
2001-01-27, 00:49:00,VALID,916.422,VALID,0,VALID,99.4916,VALID,-0.0169808,VALID,19.007,VALID,96,VALID,1.6104,
2001-01-27, 00:50:00,VALID,916.435,VALID,0,VALID,99.4916,VALID,-0.0339617,VALID,19.007,VALID,81,VALID,1.74888,
2001-01-27, 00:51:00,VALID,916.433,VALID,0,VALID,99.4853,VALID,-0.0169808,VALID,18.965,VALID,90,VALID,2.28737,
2001-01-27, 00:52:00,VALID,916.437,VALID,0,VALID,99.4942,VALID,-0.0169808,VALID,18.9617,VALID,78,VALID,1.21232,
2001-01-27, 00:53:00,VALID,916.421,VALID,0,VALID,99.4954,VALID,-0.0169808,VALID,18.9583,VALID,93,VALID,1.1212,
2001-01-27, 00:54:00,VALID,916.418,VALID,0,VALID,99.512,VALID,-0.0339617,VALID,18.9876,VALID,96,VALID,0.923584,
2001-01-27, 00:55:00,VALID,916.426,VALID,0,VALID,99.517,VALID,-0.0339617,VALID,19.0035,VALID,106,VALID,1.00821,
2001-01-27, 00:56:00,VALID,916.416,VALID,0,VALID,99.5132,VALID,-0.0339617,VALID,19.0201,VALID,105,VALID,1.23795,
2001-01-27, 00:57:00,VALID,916.407,VALID,0,VALID,99.5234,VALID,0,VALID,19.0291,VALID,99,VALID,1.2519,
2001-01-27, 00:58:00,VALID,916.408,VALID,0,VALID,99.5298,VALID,-0.0339617,VALID,19.0457,VALID,96,VALID,1.4074,
2001-01-27, 00:59:00,VALID,916.38,VALID,0,VALID,99.5107,VALID,-0.0339617,VALID,19.0164,VALID,105,VALID,1.12817,
2001-01-27, 01:00:00,VALID,916.322,VALID,0,VALID,99.5094,VALID,-0.0509425,VALID,18.991,VALID,76,VALID,0.661184,
2001-01-27, 01:01:00,VALID,916.272,VALID,0,VALID,99.5132,VALID,-0.0169808,VALID,18.9938,VALID,97,VALID,1.12418,
2001-01-27, 01:02:00,VALID,916.228,VALID,0,VALID,99.5183,VALID,-0.0169808,VALID,19.0005,VALID,96,VALID,0.695759,
2001-01-27, 01:03:00,VALID,916.164,VALID,0,VALID,99.5145,VALID,0,VALID,19.0204,VALID,128,VALID,0.207559,
2001-01-27, 01:04:00,VALID,916.115,VALID,0,VALID,99.5094,VALID,-0.0339617,VALID,18.9973,VALID,176,VALID,0.0241268,
2001-01-27, 01:05:00,VALID,916.067,VALID,0,VALID,99.5069,VALID,0,VALID,18.9908,VALID,169,VALID,0.101563,
2001-01-27, 01:06:00,VALID,916.034,VALID,0,VALID,99.517,VALID,-0.0169808,VALID,18.9677,VALID,266,VALID,0.221191,
2001-01-27, 01:07:00,VALID,916.019,VALID,0,VALID,99.5069,VALID,-0.0169808,VALID,18.9645,VALID,109,VALID,0.409054,
2001-01-27, 01:08:00,VALID,916.015,VALID,0,VALID,99.5158,VALID,-0.0169808,VALID,18.9869,VALID,99,VALID,0.256696,
2001-01-27, 01:09:00,VALID,916.045,VALID,0,VALID,99.5298,VALID,-0.0169808,VALID,19.0199,VALID,125,VALID,0.209459,
2001-01-27, 01:10:00,VALID,916.054,VALID,0,VALID,99.5272,VALID,-0.0339617,VALID,19.0296,VALID,102,VALID,0.328585,
2001-01-27, 01:11:00,VALID,916.083,VALID,0,VALID,99.5361,VALID,-0.0339617,VALID,19.0296,VALID,103,VALID,0.475718,
2001-01-27, 01:12:00,VALID,916.088,VALID,0,VALID,99.5387,VALID,-0.0339617,VALID,19.0388,VALID,89,VALID,0.599095,
2001-01-27, 01:13:00,VALID,916.099,VALID,0,VALID,99.5348,VALID,-0.0339617,VALID,19.075,VALID,99,VALID,0.888569,
2001-01-27, 01:14:00,VALID,916.087,VALID,0,VALID,99.5221,VALID,-0.0339617,VALID,19.0524,VALID,111,VALID,1.17857,
2001-01-27, 01:15:00,VALID,916.068,VALID,0,VALID,99.5298,VALID,-0.0169808,VALID,19.039,VALID,17,VALID,0.829181,
2001-01-27, 01:16:00,VALID,916.061,VALID,0,VALID,99.512,VALID,-0.0339617,VALID,19.0164,VALID,112,VALID,1.04159,
2001-01-27, 01:17:00,VALID,916.029,VALID,0,VALID,99.5221,VALID,-0.0509425,VALID,19.007,VALID,111,VALID,0.769003,
2001-01-27, 01:18:00,VALID,916.028,VALID,0,VALID,99.5221,VALID,-0.0169808,VALID,19.0035,VALID,99,VALID,1.1355,
2001-01-27, 01:19:00,VALID,916.024,VALID,0,VALID,99.5285,VALID,-0.0169808,VALID,19.0072,VALID,96,VALID,1.35577,
2001-01-27, 01:20:00,VALID,916.046,VALID,0,VALID,99.5285,VALID,-0.0339617,VALID,18.9936,VALID,96,VALID,1.19152,
2001-01-27, 01:21:00,VALID,916.046,VALID,0,VALID,99.5285,VALID,-0.0169808,VALID,19.0003,VALID,78,VALID,0.802576,
2001-01-27, 01:22:00,VALID,916.076,VALID,0,VALID,99.5107,VALID,-0.0169808,VALID,18.9645,VALID,79,VALID,1.28722,
2001-01-27, 01:23:00,VALID,916.096,VALID,0,VALID,99.5247,VALID,0,VALID,18.952,VALID,91,VALID,1.52618,
2001-01-27, 01:24:00,VALID,916.115,VALID,0,VALID,99.5221,VALID,-0.0509425,VALID,18.9488,VALID,88,VALID,1.32299,
2001-01-27, 01:25:00,VALID,916.13,VALID,0,VALID,99.5361,VALID,-0.0339617,VALID,18.962,VALID,93,VALID,1.18832,
2001-01-27, 01:26:00,VALID,916.13,VALID,0,VALID,99.5412,VALID,-0.0849042,VALID,18.9846,VALID,101,VALID,0.816071,
2001-01-27, 01:27:00,VALID,916.114,VALID,0,VALID,99.517,VALID,-0.0339617,VALID,18.9749,VALID,91,VALID,0.807221,
2001-01-27, 01:28:00,VALID,916.109,VALID,0,VALID,99.5259,VALID,-0.0849042,VALID,18.952,VALID,86,VALID,1.32537,
2001-01-27, 01:29:00,VALID,916.083,VALID,0,VALID,99.5209,VALID,-0.0509425,VALID,18.9394,VALID,78,VALID,0.833826,
2001-01-27, 01:30:00,VALID,916.062,VALID,0,VALID,99.5221,VALID,-0.0339617,VALID,18.926,VALID,94,VALID,0.97168,
2001-01-27, 01:31:00,VALID,916.03,VALID,0,VALID,99.5336,VALID,-0.0169808,VALID,18.9359,VALID,88,VALID,0.501202,
2001-01-27, 01:32:00,VALID,916.029,VALID,0,VALID,99.5348,VALID,-0.0169808,VALID,18.929,VALID,95,VALID,0.808036,
2001-01-27, 01:33:00,VALID,916.03,VALID,0,VALID,99.5425,VALID,-0.0169808,VALID,18.9416,VALID,98,VALID,0.984164,
2001-01-27, 01:34:00,VALID,916.026,VALID,0,VALID,99.531,VALID,-0.0339617,VALID,18.9518,VALID,85,VALID,1.43658,
2001-01-27, 01:35:00,VALID,916.018,VALID,0,VALID,99.5323,VALID,-0.0339617,VALID,18.9163,VALID,63,VALID,0.863598,
2001-01-27, 01:36:00,VALID,915.991,VALID,0,VALID,99.5285,VALID,0,VALID,18.9227,VALID,94,VALID,0.993421,
2001-01-27, 01:37:00,VALID,915.938,VALID,0,VALID,99.5234,VALID,-0.0339617,VALID,18.9098,VALID,86,VALID,0.873972,
2001-01-27, 01:38:00,VALID,915.893,VALID,0,VALID,99.5323,VALID,-0.0509425,VALID,18.92,VALID,90,VALID,1.17946,
2001-01-27, 01:39:00,VALID,915.846,VALID,0,VALID,99.5374,VALID,-0.0509425,VALID,18.9232,VALID,96,VALID,0.938767,
2001-01-27, 01:40:00,VALID,915.839,VALID,0,VALID,99.5437,VALID,-0.0509425,VALID,18.917,VALID,108,VALID,0.579044,
2001-01-27, 01:41:00,VALID,915.854,VALID,0,VALID,99.5527,VALID,-0.0339617,VALID,18.923,VALID,102,VALID,0.435389,
2001-01-27, 01:42:00,VALID,915.864,VALID,0,VALID,99.5399,VALID,-0.0339617,VALID,18.9294,VALID,96,VALID,2.06812,
2001-01-27, 01:43:00,VALID,915.868,VALID,0,VALID,99.5539,VALID,-0.0339617,VALID,18.9324,VALID,101,VALID,1.46094,
2001-01-27, 01:44:00,VALID,915.885,VALID,0,VALID,99.5527,VALID,-0.0169808,VALID,18.9357,VALID,100,VALID,1.17879,
2001-01-27, 01:45:00,VALID,915.911,VALID,0,VALID,99.5565,VALID,-0.0679233,VALID,18.9548,VALID,95,VALID,1.24155,
2001-01-27, 01:46:00,VALID,915.943,VALID,0,VALID,99.5323,VALID,-0.0509425,VALID,18.9165,VALID,93,VALID,1.15418,
2001-01-27, 01:47:00,VALID,915.962,VALID,0,VALID,99.5437,VALID,-0.0339617,VALID,18.923,VALID,97,VALID,0.53125,
2001-01-27, 01:48:00,VALID,915.986,VALID,0,VALID,99.5603,VALID,0,VALID,18.9324,VALID,98,VALID,1.12377,
2001-01-27, 01:49:00,VALID,916.012,VALID,0,VALID,99.5437,VALID,-0.0339617,VALID,18.9329,VALID,95,VALID,1.14803,
2001-01-27, 01:50:00,VALID,916.036,VALID,0,VALID,99.5488,VALID,-0.101885,VALID,18.9431,VALID,75,VALID,0.91942,
2001-01-27, 01:51:00,VALID,916.053,VALID,0,VALID,99.5463,VALID,-0.0339617,VALID,18.8999,VALID,69,VALID,0.721917,
2001-01-27, 01:52:00,VALID,916.074,VALID,0,VALID,99.5539,VALID,-0.0679233,VALID,18.9098,VALID,80,VALID,0.709329,
2001-01-27, 01:53:00,VALID,916.077,VALID,0,VALID,99.5527,VALID,-0.0679233,VALID,18.92,VALID,95,VALID,1.48438,
2001-01-27, 01:54:00,VALID,916.061,VALID,0,VALID,99.5514,VALID,-0.0169808,VALID,18.9098,VALID,86,VALID,1.17822,
2001-01-27, 01:55:00,VALID,916.054,VALID,0,VALID,99.5374,VALID,-0.0509425,VALID,18.8651,VALID,64,VALID,1.61699,
2001-01-27, 01:56:00,VALID,916.062,VALID,0,VALID,99.5387,VALID,-0.0509425,VALID,18.8621,VALID,95,VALID,1.38036,
2001-01-27, 01:57:00,VALID,916.042,VALID,0,VALID,99.5437,VALID,-0.0849042,VALID,18.8362,VALID,89,VALID,1.7595,
2001-01-27, 01:58:00,VALID,916.011,VALID,0,VALID,99.5488,VALID,-0.0849042,VALID,18.8752,VALID,93,VALID,1.49242,
2001-01-27, 01:59:00,VALID,915.992,VALID,0,VALID,99.5514,VALID,-0.0849042,VALID,18.875,VALID,81,VALID,1.12711,
2001-01-27, 02:00:00,VALID,915.998,VALID,0,VALID,99.5501,VALID,-0.0339617,VALID,18.8782,VALID,91,VALID,0.997327,
2001-01-27, 02:01:00,VALID,915.996,VALID,0,VALID,99.5565,VALID,-0.0679233,VALID,18.8815,VALID,95,VALID,0.882196,
2001-01-27, 02:02:00,VALID,916.002,VALID,0,VALID,99.5539,VALID,-0.0339617,VALID,18.8877,VALID,100,VALID,1.0933,
2001-01-27, 02:03:00,VALID,915.996,VALID,0,VALID,99.5628,VALID,-0.0509425,VALID,18.9103,VALID,106,VALID,0.966216,
2001-01-27, 02:04:00,VALID,915.997,VALID,0,VALID,99.5577,VALID,-0.0509425,VALID,18.9264,VALID,89,VALID,0.606618,
2001-01-27, 02:05:00,VALID,915.977,VALID,0,VALID,99.5552,VALID,-0.0509425,VALID,18.8939,VALID,103,VALID,1.07517,
2001-01-27, 02:06:00,VALID,915.974,VALID,0,VALID,99.545,VALID,-0.0509425,VALID,18.8914,VALID,69,VALID,0.919678,
2001-01-27, 02:07:00,VALID,915.971,VALID,0,VALID,99.5437,VALID,0,VALID,18.8614,VALID,96,VALID,0.797075,
2001-01-27, 02:08:00,VALID,915.964,VALID,0,VALID,99.5463,VALID,-0.0169808,VALID,18.875,VALID,100,VALID,0.85,
2001-01-27, 02:09:00,VALID,915.959,VALID,0,VALID,99.5501,VALID,0,VALID,18.8778,VALID,99,VALID,0.592694,
2001-01-27, 02:10:00,VALID,915.969,VALID,0,VALID,99.5577,VALID,0,VALID,18.8877,VALID,80,VALID,0.782858,
2001-01-27, 02:11:00,VALID,915.986,VALID,0,VALID,99.5488,VALID,-0.0169808,VALID,18.8743,VALID,92,VALID,0.873311,
2001-01-27, 02:12:00,VALID,915.985,VALID,0,VALID,99.5577,VALID,0,VALID,18.878,VALID,104,VALID,0.947368,
2001-01-27, 02:13:00,VALID,915.999,VALID,0.2,VALID,99.5603,VALID,0,VALID,18.8939,VALID,95,VALID,0.475946,
2001-01-27, 02:14:00,VALID,915.999,VALID,0,VALID,99.5577,VALID,0,VALID,18.9068,VALID,93,VALID,0.458036,
2001-01-27, 02:15:00,VALID,915.989,VALID,0,VALID,99.5577,VALID,-0.0339617,VALID,18.8941,VALID,68,VALID,0.596917,
2001-01-27, 02:16:00,VALID,915.973,VALID,0,VALID,99.5628,VALID,-0.0169808,VALID,18.8907,VALID,84,VALID,0.0749081,
2001-01-27, 02:17:00,VALID,915.959,VALID,0,VALID,99.5463,VALID,-0.0509425,VALID,18.8845,VALID,65,VALID,0.978252,
2001-01-27, 02:18:00,VALID,915.942,VALID,0,VALID,99.5488,VALID,-0.0169808,VALID,18.8882,VALID,89,VALID,0.938965,
2001-01-27, 02:19:00,VALID,915.927,VALID,0,VALID,99.5603,VALID,-0.0339617,VALID,18.8845,VALID,82,VALID,0.913462,
2001-01-27, 02:20:00,VALID,915.895,VALID,0,VALID,99.5552,VALID,0.0169808,VALID,18.8815,VALID,63,VALID,1.15201,
2001-01-27, 02:21:00,VALID,915.866,VALID,0,VALID,99.545,VALID,-0.0339617,VALID,18.8621,VALID,70,VALID,1.29899,
2001-01-27, 02:22:00,VALID,915.842,VALID,0,VALID,99.5399,VALID,0,VALID,18.8554,VALID,94,VALID,1.20818,
2001-01-27, 02:23:00,VALID,915.803,VALID,0,VALID,99.5463,VALID,0.0169808,VALID,18.8549,VALID,69,VALID,1.00866,
2001-01-27, 02:24:00,VALID,915.771,VALID,0,VALID,99.5412,VALID,0,VALID,18.842,VALID,65,VALID,1.16262,
2001-01-27, 02:25:00,VALID,915.721,VALID,0,VALID,99.5437,VALID,0,VALID,18.8328,VALID,91,VALID,1.2831,
2001-01-27, 02:26:00,VALID,915.678,VALID,0,VALID,99.5488,VALID,0,VALID,18.8485,VALID,76,VALID,1.21853,
2001-01-27, 02:27:00,VALID,915.63,VALID,0,VALID,99.5565,VALID,0,VALID,18.8551,VALID,96,VALID,1.30785,
2001-01-27, 02:28:00,VALID,915.596,VALID,0,VALID,99.5654,VALID,0,VALID,18.8842,VALID,94,VALID,1.39315,
2001-01-27, 02:29:00,VALID,915.581,VALID,0,VALID,99.5641,VALID,-0.0169808,VALID,18.8909,VALID,85,VALID,1.24219,
2001-01-27, 02:30:00,VALID,915.572,VALID,0,VALID,99.5463,VALID,0,VALID,18.8584,VALID,61,VALID,1.29639,
2001-01-27, 02:31:00,VALID,915.562,VALID,0,VALID,99.5463,VALID,0,VALID,18.8129,VALID,66,VALID,1.09175,
2001-01-27, 02:32:00,VALID,915.543,VALID,0,VALID,99.5527,VALID,0,VALID,18.8134,VALID,84,VALID,0.88817,
2001-01-27, 02:33:00,VALID,915.529,VALID,0,VALID,99.5527,VALID,0.0169808,VALID,18.8229,VALID,72,VALID,1.27238,
2001-01-27, 02:34:00,VALID,915.495,VALID,0,VALID,99.5476,VALID,0,VALID,18.8005,VALID,74,VALID,1.10869,
2001-01-27, 02:35:00,VALID,915.472,VALID,0,VALID,99.5641,VALID,0.0169808,VALID,18.8132,VALID,92,VALID,1.2329,
2001-01-27, 02:36:00,VALID,915.457,VALID,0,VALID,99.5755,VALID,-0.0169808,VALID,18.8298,VALID,71,VALID,0.604441,
2001-01-27, 02:37:00,VALID,915.454,VALID,0,VALID,99.5666,VALID,-0.101885,VALID,18.8146,VALID,74,VALID,0.839844,
2001-01-27, 02:38:00,VALID,915.447,VALID,0,VALID,99.573,VALID,-0.101885,VALID,18.8372,VALID,349,VALID,0.307589,
2001-01-27, 02:39:00,VALID,915.457,VALID,0,VALID,99.5717,VALID,-0.101885,VALID,18.8439,VALID,44,VALID,0.341639,
2001-01-27, 02:40:00,VALID,915.463,VALID,0,VALID,99.5654,VALID,-0.118866,VALID,18.8307,VALID,98,VALID,1.06158,
2001-01-27, 02:41:00,VALID,915.444,VALID,0,VALID,99.573,VALID,-0.101885,VALID,18.8365,VALID,78,VALID,1.40393,
2001-01-27, 02:42:00,VALID,915.447,VALID,0,VALID,99.5577,VALID,-0.101885,VALID,18.8114,VALID,69,VALID,1.11572,
2001-01-27, 02:43:00,VALID,915.463,VALID,0,VALID,99.5501,VALID,-0.101885,VALID,18.8141,VALID,88,VALID,1.52183,
2001-01-27, 02:44:00,VALID,915.427,VALID,0,VALID,99.5514,VALID,-0.101885,VALID,18.8277,VALID,93,VALID,1.41719,
2001-01-27, 02:45:00,VALID,915.429,VALID,0,VALID,99.5628,VALID,-0.101885,VALID,18.8114,VALID,51,VALID,1.23057,
2001-01-27, 02:46:00,VALID,915.396,VALID,0,VALID,99.5527,VALID,-0.118866,VALID,18.8178,VALID,69,VALID,0.961397,
2001-01-27, 02:47:00,VALID,915.351,VALID,0,VALID,99.559,VALID,-0.118866,VALID,18.8245,VALID,75,VALID,1.14168,
2001-01-27, 02:48:00,VALID,915.3,VALID,0,VALID,99.5577,VALID,-0.101885,VALID,18.8141,VALID,67,VALID,0.636924,
2001-01-27, 02:49:00,VALID,915.274,VALID,0,VALID,99.5527,VALID,-0.101885,VALID,18.8208,VALID,48,VALID,0.947574,
2001-01-27, 02:50:00,VALID,915.23,VALID,0,VALID,99.5501,VALID,-0.101885,VALID,18.8245,VALID,10,VALID,0.357143,
2001-01-27, 02:51:00,VALID,915.207,VALID,0,VALID,99.545,VALID,-0.0849042,VALID,18.8111,VALID,85,VALID,0.605785,
2001-01-27, 02:52:00,VALID,915.191,VALID,0,VALID,99.5514,VALID,0,VALID,18.8427,VALID,101,VALID,0.777344,
2001-01-27, 02:53:00,VALID,915.181,VALID,0,VALID,99.5565,VALID,0,VALID,18.8554,VALID,92,VALID,1.10051,
2001-01-27, 02:54:00,VALID,915.175,VALID,0,VALID,99.5565,VALID,0,VALID,18.8741,VALID,93,VALID,0.862061,
2001-01-27, 02:55:00,VALID,915.194,VALID,0,VALID,99.5527,VALID,0.0169808,VALID,18.8879,VALID,91,VALID,0.817508,
2001-01-27, 02:56:00,VALID,915.243,VALID,0,VALID,99.5628,VALID,0,VALID,18.884,VALID,92,VALID,0.632143,
2001-01-27, 02:57:00,VALID,915.263,VALID,0,VALID,99.5488,VALID,0,VALID,18.8616,VALID,61,VALID,0.760135,
2001-01-27, 02:58:00,VALID,915.288,VALID,0,VALID,99.5501,VALID,0,VALID,18.8554,VALID,88,VALID,0.805147,
2001-01-27, 02:59:00,VALID,915.283,VALID,0,VALID,99.5539,VALID,-0.0169808,VALID,18.8616,VALID,79,VALID,1.09903,
2001-01-27, 03:00:00,VALID,915.274,VALID,0,VALID,99.545,VALID,-0.0169808,VALID,18.839,VALID,75,VALID,1.45888,
2001-01-27, 03:01:00,VALID,915.276,VALID,0,VALID,99.5387,VALID,-0.0169808,VALID,18.8365,VALID,80,VALID,1.74794,
2001-01-27, 03:02:00,VALID,915.246,VALID,0,VALID,99.5348,VALID,0,VALID,18.8425,VALID,83,VALID,1.58661,
2001-01-27, 03:03:00,VALID,915.252,VALID,0,VALID,99.5361,VALID,-0.0169808,VALID,18.8395,VALID,85,VALID,1.67145,
2001-01-27, 03:04:00,VALID,915.261,VALID,0,VALID,99.5361,VALID,0,VALID,18.8489,VALID,71,VALID,1.0563,
2001-01-27, 03:05:00,VALID,915.282,VALID,0,VALID,99.5272,VALID,0,VALID,18.8422,VALID,79,VALID,1.06123,
2001-01-27, 03:06:00,VALID,915.276,VALID,0,VALID,99.5387,VALID,0,VALID,18.8559,VALID,80,VALID,1.16602,
2001-01-27, 03:07:00,VALID,915.292,VALID,0,VALID,99.5399,VALID,-0.0339617,VALID,18.8586,VALID,95,VALID,0.9373,
2001-01-27, 03:08:00,VALID,915.304,VALID,0,VALID,99.5323,VALID,-0.0679233,VALID,18.8559,VALID,82,VALID,1.55402,
2001-01-27, 03:09:00,VALID,915.307,VALID,0,VALID,99.5183,VALID,-0.0679233,VALID,18.8517,VALID,91,VALID,1.25633,
2001-01-27, 03:10:00,VALID,915.312,VALID,0,VALID,99.5132,VALID,-0.0339617,VALID,18.8526,VALID,83,VALID,1.78791,
2001-01-27, 03:11:00,VALID,915.31,VALID,0,VALID,99.517,VALID,-0.0679233,VALID,18.8425,VALID,75,VALID,1.47318,
2001-01-27, 03:12:00,VALID,915.328,VALID,0,VALID,99.5107,VALID,-0.0339617,VALID,18.8358,VALID,77,VALID,1.78598,
2001-01-27, 03:13:00,VALID,915.331,VALID,0,VALID,99.5094,VALID,-0.0509425,VALID,18.8362,VALID,95,VALID,2.09992,
2001-01-27, 03:14:00,VALID,915.349,VALID,0,VALID,99.5069,VALID,-0.0679233,VALID,18.8492,VALID,89,VALID,1.26607,
2001-01-27, 03:15:00,VALID,915.346,VALID,0,VALID,99.4992,VALID,-0.0509425,VALID,18.8522,VALID,85,VALID,1.64421,
2001-01-27, 03:16:00,VALID,915.333,VALID,0,VALID,99.4713,VALID,-0.0679233,VALID,18.8266,VALID,84,VALID,1.47381,
2001-01-27, 03:17:00,VALID,915.344,VALID,0,VALID,99.4751,VALID,-0.0339617,VALID,18.8427,VALID,70,VALID,1.57137,
2001-01-27, 03:18:00,VALID,915.322,VALID,0,VALID,99.4675,VALID,-0.0169808,VALID,18.8526,VALID,78,VALID,1.60254,
2001-01-27, 03:19:00,VALID,915.313,VALID,0,VALID,99.4649,VALID,-0.0509425,VALID,18.8325,VALID,85,VALID,1.58173,
2001-01-27, 03:20:00,VALID,915.313,VALID,0,VALID,99.4611,VALID,-0.0169808,VALID,18.8392,VALID,69,VALID,1.92277,
2001-01-27, 03:21:00,VALID,915.288,VALID,0,VALID,99.456,VALID,-0.0339617,VALID,18.8293,VALID,89,VALID,1.56356,
2001-01-27, 03:22:00,VALID,915.276,VALID,0,VALID,99.4484,VALID,-0.0509425,VALID,18.8554,VALID,85,VALID,1.23185,
2001-01-27, 03:23:00,VALID,915.262,VALID,0,VALID,99.4382,VALID,-0.0169808,VALID,18.8457,VALID,92,VALID,1.07264,
2001-01-27, 03:24:00,VALID,915.245,VALID,0,VALID,99.4306,VALID,-0.0169808,VALID,18.8522,VALID,93,VALID,0.62685,
2001-01-27, 03:25:00,VALID,915.234,VALID,0,VALID,99.4318,VALID,0,VALID,18.842,VALID,95,VALID,1.09848,
2001-01-27, 03:26:00,VALID,915.215,VALID,0,VALID,99.4318,VALID,0,VALID,18.8618,VALID,105,VALID,0.756473,
2001-01-27, 03:27:00,VALID,915.228,VALID,0,VALID,99.4344,VALID,-0.0509425,VALID,18.878,VALID,94,VALID,0.669764,
2001-01-27, 03:28:00,VALID,915.226,VALID,0,VALID,99.428,VALID,-0.0339617,VALID,18.8741,VALID,88,VALID,0.740349,
2001-01-27, 03:29:00,VALID,915.21,VALID,0,VALID,99.4229,VALID,-0.0169808,VALID,18.8812,VALID,97,VALID,0.785262,
2001-01-27, 03:30:00,VALID,915.21,VALID,0,VALID,99.4191,VALID,-0.0169808,VALID,18.881,VALID,94,VALID,0.592529,
2001-01-27, 03:31:00,VALID,915.196,VALID,0,VALID,99.4242,VALID,-0.0169808,VALID,18.878,VALID,94,VALID,1.05889,
2001-01-27, 03:32:00,VALID,915.175,VALID,0,VALID,99.4357,VALID,-0.0509425,VALID,18.8872,VALID,92,VALID,1.00156,